Portada
METAR-TAF:

METAR-TAF

Aeroports :

Mikkeli, Finlàndia

latitud: 61-44N, longitud: 027-18E, altitud: 138 m

Observació

L'informe es va fer fa 21 minuts, a les 19:20 UTC
Vent 9 kt del Sud/Sud-Oest, variant entre Sud/Sud-Est i Oest
Temperatura 4°C
Humitat 81%
Pressió 984 hPa
Visibilitat 10 km o més
Cel cobert a una alçada de 2200 ft

METAR: EFMI 171920Z AUTO 20009KT 160V270 9999 OVC022 04/01 Q0984

Hora: 21:41 (19:41 UTC)


TAF: manca

Observacions i pronòstics meteorològics de més de 4000 aeroports (METAR i TAF).

Les estacions disponibles són els punts grocs i vermells al mapa.

Posi el ratolí al punt desitjat per veure el nom de l'estació.

Feu clic per veure les observacions i els pronòstics meteorològics.

Per canviar el mapa: feu clic els botons verds amb una creu de color negre per apropar; al botó verd amb un guió per allunyar la imatge; o en les fletxes verdes per a mapes adjacents.


METAR-TAF: